Time,TemperatureF,DewpointF,PressureIn,WindDirection,WindDirectionDegrees,WindSpeedMPH,WindSpeedGustMPH,Humidity,HourlyPrecipIn,Conditions,Clouds,dailyrainin,SolarRadiationWatts/m^2,SoftwareType,DateUTC
2013-05-23 00:04:00,58.3,57.0,29.44,ENE,69,3.0,-999.0,96,-99.99,,,1.43,0,weatherlink.com 1.10,2013-05-22 22:04:00,
2013-05-23 00:19:00,58.2,57.0,29.44,East,82,6.0,-999.0,96,-99.99,,,1.46,0,weatherlink.com 1.10,2013-05-22 22:19:00,
2013-05-23 00:34:00,58.5,57.0,29.44,NE,51,7.0,-999.0,96,-99.99,,,1.46,0,weatherlink.com 1.10,2013-05-22 22:34:00,
2013-05-23 00:49:00,58.5,57.0,29.44,ENE,66,1.0,-999.0,95,-99.99,,,1.47,0,weatherlink.com 1.10,2013-05-22 22:49:00,
2013-05-23 01:04:00,58.5,57.0,29.44,ENE,65,1.0,-999.0,95,-99.99,,,1.47,0,weatherlink.com 1.10,2013-05-22 23:04:00,
2013-05-23 01:19:00,58.4,57.0,29.43,ENE,65,0.0,-999.0,95,-99.99,,,1.47,0,weatherlink.com 1.10,2013-05-22 23:19:00,
2013-05-23 01:34:00,58.3,57.0,29.44,ENE,65,0.0,-999.0,94,-99.99,,,1.48,0,weatherlink.com 1.10,2013-05-22 23:34:00,
2013-05-23 01:49:00,58.3,57.0,29.44,ENE,65,0.0,-999.0,95,-99.99,,,1.49,0,weatherlink.com 1.10,2013-05-22 23:49:00,
2013-05-23 02:04:00,58.1,57.0,29.44,West,259,5.0,-999.0,95,-99.99,,,1.50,0,weatherlink.com 1.10,2013-05-23 00:04:00,
2013-05-23 02:19:00,58.1,57.0,29.44,West,269,1.0,-999.0,96,-99.99,,,1.50,0,weatherlink.com 1.10,2013-05-23 00:19:00,
2013-05-23 02:34:00,57.9,57.0,29.43,WNW,282,0.0,-999.0,97,-99.99,,,1.50,0,weatherlink.com 1.10,2013-05-23 00:34:00,
2013-05-23 02:49:00,57.7,57.0,29.43,WNW,282,0.0,-999.0,97,-99.99,,,1.50,0,weatherlink.com 1.10,2013-05-23 00:49:00,
2013-05-23 03:04:00,57.6,57.0,29.43,WNW,282,0.0,-999.0,97,-99.99,,,1.50,0,weatherlink.com 1.10,2013-05-23 01:04:00,
2013-05-23 03:19:00,57.7,57.0,29.43,WNW,285,4.0,-999.0,97,-99.99,,,1.50,0,weatherlink.com 1.10,2013-05-23 01:19:00,
2013-05-23 03:35:00,57.8,57.0,29.43,NNE,18,3.0,-999.0,98,-99.99,,,1.50,0,weatherlink.com 1.10,2013-05-23 01:35:00,
2013-05-23 03:49:00,57.9,57.0,29.43,NNE,18,2.0,-999.0,98,-99.99,,,0.01,0,weatherlink.com 1.10,2013-05-23 01:49:00,
2013-05-23 04:05:00,57.9,57.0,29.43,NNE,18,3.0,-999.0,98,-99.99,,,0.01,0,weatherlink.com 1.10,2013-05-23 02:05:00,
2013-05-23 04:20:00,57.8,57.0,29.43,NNE,18,0.0,-999.0,98,-99.99,,,0.01,0,weatherlink.com 1.10,2013-05-23 02:20:00,
2013-05-23 04:35:00,57.7,57.0,29.43,NNE,18,2.0,-999.0,98,-99.99,,,0.01,0,weatherlink.com 1.10,2013-05-23 02:35:00,
2013-05-23 04:50:00,57.7,57.0,29.43,NNE,18,0.0,-999.0,98,-99.99,,,0.01,0,weatherlink.com 1.10,2013-05-23 02:50:00,
2013-05-23 05:05:00,57.3,57.0,29.43,NNE,18,2.0,-999.0,98,-99.99,,,0.03,0,weatherlink.com 1.10,2013-05-23 03:05:00,
2013-05-23 05:20:00,57.4,57.0,29.42,NNE,18,2.0,-999.0,98,-99.99,,,0.05,0,weatherlink.com 1.10,2013-05-23 03:20:00,
2013-05-23 05:35:00,57.2,57.0,29.42,NNE,18,0.0,-999.0,98,-99.99,,,0.06,0,weatherlink.com 1.10,2013-05-23 03:35:00,
2013-05-23 05:50:00,56.9,56.0,29.42,NNE,18,1.0,-999.0,98,-99.99,,,0.06,0,weatherlink.com 1.10,2013-05-23 03:50:00,
2013-05-23 06:05:00,56.8,56.0,29.43,NNE,18,2.0,-999.0,98,-99.99,,,0.06,0,weatherlink.com 1.10,2013-05-23 04:05:00,
2013-05-23 07:20:00,56.7,56.0,29.45,NNE,18,3.0,-999.0,98,-99.99,,,0.06,14,weatherlink.com 1.10,2013-05-23 05:20:00,
2013-05-23 07:35:00,56.4,56.0,29.45,NNE,17,4.0,-999.0,98,-99.99,,,0.11,26,weatherlink.com 1.10,2013-05-23 05:35:00,
2013-05-23 07:50:00,56.5,56.0,29.45,NNE,16,3.0,-999.0,98,-99.99,,,0.13,49,weatherlink.com 1.10,2013-05-23 05:50:00,
2013-05-23 08:05:00,56.8,56.0,29.45,NNE,16,5.0,-999.0,98,-99.99,,,0.13,77,weatherlink.com 1.10,2013-05-23 06:05:00,
2013-05-23 08:20:00,56.7,56.0,29.46,North,11,6.0,-999.0,98,-99.99,,,0.13,111,weatherlink.com 1.10,2013-05-23 06:20:00,
2013-05-23 08:36:00,57.0,57.0,29.46,North,350,8.0,-999.0,98,-99.99,,,0.13,151,weatherlink.com 1.10,2013-05-23 06:36:00,
2013-05-23 08:51:00,56.7,56.0,29.46,North,11,6.0,-999.0,97,-99.99,,,0.13,105,weatherlink.com 1.10,2013-05-23 06:51:00,
2013-05-23 09:06:00,56.9,56.0,29.47,North,360,3.0,-999.0,97,-99.99,,,0.13,125,weatherlink.com 1.10,2013-05-23 07:06:00,
2013-05-23 09:21:00,56.6,56.0,29.47,North,10,4.0,-999.0,96,-99.99,,,0.13,141,weatherlink.com 1.10,2013-05-23 07:21:00,
2013-05-23 09:36:00,57.2,56.0,29.47,North,5,1.0,-999.0,96,-99.99,,,0.13,179,weatherlink.com 1.10,2013-05-23 07:36:00,
2013-05-23 10:06:00,57.2,56.0,29.48,NW,311,5.0,-999.0,94,-99.99,,,0.13,160,weatherlink.com 1.10,2013-05-23 08:06:00,
2013-05-23 10:21:00,59.2,57.0,29.47,NNE,25,2.0,-999.0,93,-99.99,,,0.13,1005,weatherlink.com 1.10,2013-05-23 08:21:00,
2013-05-23 10:36:00,60.4,58.0,29.48,North,349,3.0,-999.0,90,-99.99,,,0.13,425,weatherlink.com 1.10,2013-05-23 08:36:00,
2013-05-23 10:51:00,59.8,57.0,29.48,NW,326,4.0,-999.0,91,-99.99,,,0.13,531,weatherlink.com 1.10,2013-05-23 08:51:00,
2013-05-23 11:06:00,59.8,57.0,29.49,NW,321,5.0,-999.0,91,-99.99,,,0.13,234,weatherlink.com 1.10,2013-05-23 09:06:00,
2013-05-23 11:21:00,60.8,58.0,29.48,NW,324,2.0,-999.0,89,-99.99,,,0.13,427,weatherlink.com 1.10,2013-05-23 09:21:00,
2013-05-23 11:36:00,61.9,58.0,29.48,NW,324,4.0,-999.0,86,-99.99,,,0.13,330,weatherlink.com 1.10,2013-05-23 09:36:00,
2013-05-23 11:51:00,59.5,57.0,29.48,NW,309,8.0,-999.0,91,-99.99,,,0.13,134,weatherlink.com 1.10,2013-05-23 09:51:00,
2013-05-23 12:06:00,59.8,58.0,29.49,WSW,257,5.0,-999.0,92,-99.99,,,0.13,367,weatherlink.com 1.10,2013-05-23 10:06:00,
2013-05-23 12:21:00,59.9,57.0,29.49,NW,306,7.0,-999.0,90,-99.99,,,0.13,279,weatherlink.com 1.10,2013-05-23 10:21:00,
2013-05-23 12:36:00,59.3,57.0,29.49,WNW,284,9.0,-999.0,91,-99.99,,,0.13,220,weatherlink.com 1.10,2013-05-23 10:36:00,
2013-05-23 12:51:00,58.3,56.0,29.50,West,260,5.0,-999.0,92,-99.99,,,0.13,169,weatherlink.com 1.10,2013-05-23 10:51:00,
2013-05-23 13:06:00,58.1,57.0,29.50,WSW,251,8.0,-999.0,95,-99.99,,,0.15,292,weatherlink.com 1.10,2013-05-23 11:06:00,
2013-05-23 13:21:00,58.9,58.0,29.50,West,265,5.0,-999.0,95,-99.99,,,0.17,394,weatherlink.com 1.10,2013-05-23 11:21:00,
2013-05-23 13:36:00,60.1,58.0,29.50,West,275,4.0,-999.0,92,-99.99,,,0.17,262,weatherlink.com 1.10,2013-05-23 11:36:00,
2013-05-23 13:51:00,58.4,56.0,29.51,NW,314,3.0,-999.0,93,-99.99,,,0.20,76,weatherlink.com 1.10,2013-05-23 11:51:00,
2013-05-23 14:06:00,58.3,57.0,29.51,SW,235,4.0,-999.0,95,-99.99,,,0.24,81,weatherlink.com 1.10,2013-05-23 12:06:00,
2013-05-23 14:21:00,58.7,57.0,29.52,WNW,302,4.0,-999.0,95,-99.99,,,0.26,123,weatherlink.com 1.10,2013-05-23 12:21:00,
2013-05-23 14:36:00,58.9,57.0,29.53,NW,311,7.0,-999.0,93,-99.99,,,0.26,104,weatherlink.com 1.10,2013-05-23 12:36:00,
2013-05-23 14:51:00,60.0,57.0,29.52,WNW,298,11.0,-999.0,88,-99.99,,,0.26,234,weatherlink.com 1.10,2013-05-23 12:51:00,
2013-05-23 15:06:00,60.5,56.0,29.53,NW,309,11.0,-999.0,86,-99.99,,,0.26,329,weatherlink.com 1.10,2013-05-23 13:06:00,
2013-05-23 15:21:00,60.7,57.0,29.53,NW,325,6.0,-999.0,86,-99.99,,,0.26,197,weatherlink.com 1.10,2013-05-23 13:21:00,
2013-05-23 15:36:00,61.1,56.0,29.53,NW,304,13.0,-999.0,84,-99.99,,,0.26,204,weatherlink.com 1.10,2013-05-23 13:36:00,
2013-05-23 15:51:00,61.3,57.0,29.54,NW,319,12.0,-999.0,85,-99.99,,,0.26,137,weatherlink.com 1.10,2013-05-23 13:51:00,
2013-05-23 16:06:00,61.5,57.0,29.54,NW,311,13.0,-999.0,84,-99.99,,,0.26,197,weatherlink.com 1.10,2013-05-23 14:06:00,
2013-05-23 16:21:00,61.7,56.0,29.54,NW,317,11.0,-999.0,80,-99.99,,,0.26,230,weatherlink.com 1.10,2013-05-23 14:21:00,
2013-05-23 16:36:00,61.9,56.0,29.54,NW,321,10.0,-999.0,80,-99.99,,,0.26,264,weatherlink.com 1.10,2013-05-23 14:36:00,
2013-05-23 16:52:00,62.1,56.0,29.55,WNW,298,11.0,-999.0,79,-99.99,,,0.26,227,weatherlink.com 1.10,2013-05-23 14:52:00,
2013-05-23 17:07:00,62.5,55.0,29.56,NW,309,9.0,-999.0,76,-99.99,,,0.26,274,weatherlink.com 1.10,2013-05-23 15:07:00,
2013-05-23 17:22:00,63.5,55.0,29.57,NW,313,15.0,-999.0,74,-99.99,,,0.26,255,weatherlink.com 1.10,2013-05-23 15:22:00,
2013-05-23 17:37:00,62.8,54.0,29.57,WNW,298,15.0,-999.0,74,-99.99,,,0.26,195,weatherlink.com 1.10,2013-05-23 15:37:00,
2013-05-23 17:52:00,62.9,55.0,29.57,NW,304,4.0,-999.0,74,-99.99,,,0.26,97,weatherlink.com 1.10,2013-05-23 15:52:00,
2013-05-23 18:07:00,61.8,57.0,29.57,NW,316,4.0,-999.0,83,-99.99,,,0.26,120,weatherlink.com 1.10,2013-05-23 16:07:00,
2013-05-23 18:22:00,63.8,58.0,29.57,West,274,3.0,-999.0,80,-99.99,,,0.26,397,weatherlink.com 1.10,2013-05-23 16:22:00,
2013-05-23 18:37:00,63.9,57.0,29.57,NW,309,4.0,-999.0,77,-99.99,,,0.26,278,weatherlink.com 1.10,2013-05-23 16:37:00,
2013-05-23 18:52:00,64.5,57.0,29.56,NW,304,10.0,-999.0,76,-99.99,,,0.26,218,weatherlink.com 1.10,2013-05-23 16:52:00,
2013-05-23 19:07:00,64.0,56.0,29.57,NW,322,7.0,-999.0,75,-99.99,,,0.26,67,weatherlink.com 1.10,2013-05-23 17:07:00,
2013-05-23 19:22:00,62.7,56.0,29.58,West,265,7.0,-999.0,78,-99.99,,,0.26,185,weatherlink.com 1.10,2013-05-23 17:22:00,
2013-05-23 19:37:00,62.7,56.0,29.59,WSW,244,6.0,-999.0,78,-99.99,,,0.26,91,weatherlink.com 1.10,2013-05-23 17:37:00,
2013-05-23 19:52:00,61.9,56.0,29.60,WSW,252,8.0,-999.0,80,-99.99,,,0.26,58,weatherlink.com 1.10,2013-05-23 17:52:00,
2013-05-23 20:07:00,61.2,56.0,29.60,West,259,10.0,-999.0,82,-99.99,,,0.26,33,weatherlink.com 1.10,2013-05-23 18:07:00,
2013-05-23 20:22:00,60.4,56.0,29.61,West,262,5.0,-999.0,85,-99.99,,,0.26,9,weatherlink.com 1.10,2013-05-23 18:22:00,
2013-05-23 20:37:00,59.9,56.0,29.62,WSW,250,3.0,-999.0,87,-99.99,,,0.26,0,weatherlink.com 1.10,2013-05-23 18:37:00,
2013-05-23 20:52:00,59.9,57.0,29.63,WSW,248,4.0,-999.0,89,-99.99,,,0.26,0,weatherlink.com 1.10,2013-05-23 18:52:00,
2013-05-23 21:07:00,59.9,57.0,29.63,SW,234,8.0,-999.0,91,-99.99,,,0.26,0,weatherlink.com 1.10,2013-05-23 19:07:00,
2013-05-23 21:22:00,59.6,57.0,29.64,WSW,252,4.0,-999.0,92,-99.99,,,0.26,0,weatherlink.com 1.10,2013-05-23 19:22:00,
2013-05-23 21:37:00,59.2,57.0,29.65,WSW,252,5.0,-999.0,92,-99.99,,,0.26,0,weatherlink.com 1.10,2013-05-23 19:37:00,
2013-05-23 21:52:00,58.9,57.0,29.65,WSW,251,5.0,-999.0,93,-99.99,,,0.26,0,weatherlink.com 1.10,2013-05-23 19:52:00,
2013-05-23 22:07:00,58.6,57.0,29.66,West,267,0.0,-999.0,93,-99.99,,,0.26,0,weatherlink.com 1.10,2013-05-23 20:07:00,
2013-05-23 22:22:00,58.0,56.0,29.66,West,268,0.0,-999.0,93,-99.99,,,0.26,0,weatherlink.com 1.10,2013-05-23 20:22:00,
2013-05-23 22:37:00,58.0,56.0,29.67,West,267,0.0,-999.0,93,-99.99,,,0.26,0,weatherlink.com 1.10,2013-05-23 20:37:00,
2013-05-23 22:52:00,55.7,54.0,29.67,West,267,3.0,-999.0,93,-99.99,,,0.26,0,weatherlink.com 1.10,2013-05-23 20:52:00,
2013-05-23 23:07:00,55.1,54.0,29.67,West,267,1.0,-999.0,95,-99.99,,,0.26,0,weatherlink.com 1.10,2013-05-23 21:07:00,
2013-05-23 23:22:00,54.9,54.0,29.67,West,268,1.0,-999.0,96,-99.99,,,0.26,0,weatherlink.com 1.10,2013-05-23 21:22:00,
2013-05-23 23:37:00,55.1,54.0,29.67,West,268,0.0,-999.0,96,-99.99,,,0.26,0,weatherlink.com 1.10,2013-05-23 21:37:00,
2013-05-23 23:52:00,55.5,54.0,29.68,SW,219,0.0,-999.0,96,-99.99,,,0.26,0,weatherlink.com 1.10,2013-05-23 21:52:00,